Time,TemperatureF,DewpointF,PressureIn,WindDirection,WindDirectionDegrees,WindSpeedMPH,WindSpeedGustMPH,Humidity,HourlyPrecipIn,Conditions,Clouds,dailyrainin,SoftwareType,DateUTC
2013-01-15 00:02:00,25.0,22.0,30.25,NNW,346,7.0,10.0,88,0.00,,,0.00,,2013-01-15 06:02:00,
2013-01-15 00:12:00,25.0,22.0,30.25,NNW,346,7.0,10.0,88,0.00,,,0.00,,2013-01-15 06:12:00,
2013-01-15 00:22:00,25.0,22.0,30.24,NNE,28,6.0,10.0,87,0.00,,,0.00,,2013-01-15 06:22:00,
2013-01-15 00:33:00,25.0,22.0,30.24,NE,35,10.0,13.0,88,0.00,,,0.00,,2013-01-15 06:33:00,
2013-01-15 00:42:00,25.0,22.0,30.24,NE,35,10.0,13.0,88,0.00,,,0.00,,2013-01-15 06:42:00,
2013-01-15 00:52:00,25.0,22.0,30.24,ENE,58,2.0,13.0,88,0.00,,,0.00,,2013-01-15 06:52:00,
2013-01-15 01:02:00,25.0,22.0,30.24,NNE,30,4.0,13.0,87,0.00,,,0.00,,2013-01-15 07:02:00,
2013-01-15 01:12:00,25.0,22.0,30.24,NNE,30,4.0,13.0,87,0.00,,,0.00,,2013-01-15 07:12:00,
2013-01-15 01:22:00,25.0,22.0,30.24,North,352,2.0,13.0,88,0.00,,,0.00,,2013-01-15 07:22:00,
2013-01-15 01:32:00,25.0,22.0,30.24,NNE,18,6.0,14.0,87,0.00,,,0.00,,2013-01-15 07:32:00,
2013-01-15 01:42:00,25.0,22.0,30.24,NNE,18,6.0,14.0,87,0.00,,,0.00,,2013-01-15 07:42:00,
2013-01-15 01:52:00,24.0,21.0,30.24,NNE,18,5.0,14.0,87,0.00,,,0.00,,2013-01-15 07:52:00,
2013-01-15 02:02:00,24.0,21.0,30.24,NNE,24,7.0,13.0,88,0.00,,,0.00,,2013-01-15 08:02:00,
2013-01-15 02:12:00,24.0,21.0,30.24,NNE,24,7.0,13.0,88,0.00,,,0.00,,2013-01-15 08:12:00,
2013-01-15 02:22:00,24.0,21.0,30.24,NE,40,8.0,13.0,87,0.00,,,0.00,,2013-01-15 08:22:00,
2013-01-15 02:33:00,24.0,21.0,30.25,NNE,20,7.0,12.0,88,0.00,,,0.00,,2013-01-15 08:33:00,
2013-01-15 02:42:00,24.0,21.0,30.25,NNE,20,7.0,12.0,88,0.00,,,0.00,,2013-01-15 08:42:00,
2013-01-15 02:52:00,24.0,21.0,30.25,NE,35,11.0,12.0,88,0.00,,,0.00,,2013-01-15 08:52:00,
2013-01-15 03:02:00,24.0,21.0,30.24,NNE,20,2.0,12.0,89,0.00,,,0.00,,2013-01-15 09:02:00,
2013-01-15 03:12:00,24.0,21.0,30.24,NNE,20,2.0,12.0,89,0.00,,,0.00,,2013-01-15 09:12:00,
2013-01-15 03:22:00,24.0,21.0,30.24,NE,45,2.0,12.0,88,0.00,,,0.00,,2013-01-15 09:22:00,
2013-01-15 03:33:00,23.0,20.0,30.24,NE,37,5.0,12.0,88,0.00,,,0.00,,2013-01-15 09:33:00,
2013-01-15 03:42:00,23.0,20.0,30.24,NE,37,5.0,12.0,88,0.00,,,0.00,,2013-01-15 09:42:00,
2013-01-15 03:52:00,23.0,20.0,30.24,NE,48,1.0,12.0,89,0.00,,,0.00,,2013-01-15 09:52:00,
2013-01-15 04:02:00,23.0,21.0,30.22,NE,54,5.0,7.0,90,0.00,,,0.00,,2013-01-15 10:02:00,
2013-01-15 04:12:00,23.0,21.0,30.22,NE,54,5.0,7.0,90,0.00,,,0.00,,2013-01-15 10:12:00,
2013-01-15 04:22:00,23.0,21.0,30.22,NE,47,1.0,7.0,90,0.00,,,0.00,,2013-01-15 10:22:00,
2013-01-15 04:32:00,23.0,21.0,30.22,NE,48,2.0,10.0,90,0.00,,,0.00,,2013-01-15 10:32:00,
2013-01-15 04:42:00,23.0,21.0,30.22,NE,48,2.0,10.0,90,0.00,,,0.00,,2013-01-15 10:42:00,
2013-01-15 04:52:00,23.0,21.0,30.21,ENE,58,5.0,10.0,90,0.00,,,0.00,,2013-01-15 10:52:00,
2013-01-15 05:02:00,24.0,22.0,30.21,NE,51,3.0,10.0,90,0.00,,,0.00,,2013-01-15 11:02:00,
2013-01-15 05:12:00,24.0,21.0,30.20,ENE,61,9.0,10.0,89,0.00,,,0.00,,2013-01-15 11:12:00,
2013-01-15 05:22:00,24.0,21.0,30.20,ENE,61,9.0,10.0,89,0.00,,,0.00,,2013-01-15 11:22:00,
2013-01-15 05:33:00,24.0,22.0,30.20,ENE,68,3.0,11.0,90,0.00,,,0.00,,2013-01-15 11:33:00,
2013-01-15 05:42:00,24.0,22.0,30.20,ENE,68,3.0,11.0,90,0.00,,,0.00,,2013-01-15 11:42:00,
2013-01-15 05:52:00,24.0,22.0,30.20,East,79,7.0,11.0,90,0.00,,,0.00,,2013-01-15 11:52:00,
2013-01-15 06:03:00,25.0,22.0,30.21,ENE,66,1.0,14.0,89,0.00,,,0.00,,2013-01-15 12:03:00,
2013-01-15 06:12:00,25.0,22.0,30.21,ENE,66,1.0,14.0,89,0.00,,,0.00,,2013-01-15 12:12:00,
2013-01-15 06:22:00,25.0,23.0,30.20,NE,42,7.0,14.0,91,0.00,,,0.00,,2013-01-15 12:22:00,
2013-01-15 06:33:00,24.0,22.0,30.20,ENE,69,12.0,17.0,91,0.00,,,0.00,,2013-01-15 12:33:00,
2013-01-15 06:42:00,24.0,22.0,30.20,ENE,69,12.0,17.0,91,0.00,,,0.00,,2013-01-15 12:42:00,
2013-01-15 06:53:00,25.0,22.0,30.19,ENE,76,7.0,17.0,90,0.00,,,0.00,,2013-01-15 12:53:00,
2013-01-15 07:03:00,25.0,22.0,30.19,ENE,76,7.0,17.0,90,0.00,,,0.00,,2013-01-15 13:03:00,
2013-01-15 07:12:00,25.0,22.0,30.19,ENE,76,7.0,17.0,90,0.00,,,0.00,,2013-01-15 13:12:00,
2013-01-15 07:23:00,25.0,22.0,30.20,NNE,23,5.0,17.0,89,0.00,,,0.00,,2013-01-15 13:23:00,
2013-01-15 07:33:00,24.0,21.0,30.20,NE,49,4.0,17.0,88,0.00,,,0.00,,2013-01-15 13:33:00,
2013-01-15 07:43:00,24.0,21.0,30.20,NE,49,4.0,17.0,88,0.00,,,0.00,,2013-01-15 13:43:00,
2013-01-15 07:53:00,24.0,21.0,30.21,ENE,76,6.0,17.0,89,0.00,,,0.00,,2013-01-15 13:53:00,
2013-01-15 08:02:00,25.0,22.0,30.21,ENE,68,6.0,14.0,90,0.00,,,0.00,,2013-01-15 14:02:00,
2013-01-15 08:12:00,25.0,22.0,30.21,ENE,68,6.0,14.0,90,0.00,,,0.00,,2013-01-15 14:12:00,
2013-01-15 08:23:00,25.0,22.0,30.21,NE,42,7.0,14.0,89,0.00,,,0.00,,2013-01-15 14:23:00,
2013-01-15 08:33:00,25.0,22.0,30.22,ENE,62,11.0,14.0,88,0.00,,,0.00,,2013-01-15 14:33:00,
2013-01-15 08:43:00,25.0,22.0,30.22,ENE,62,11.0,14.0,88,0.00,,,0.00,,2013-01-15 14:43:00,
2013-01-15 08:53:00,25.0,22.0,30.21,ENE,68,10.0,14.0,87,0.00,,,0.00,,2013-01-15 14:53:00,
2013-01-15 09:03:00,25.0,22.0,30.21,NE,52,6.0,17.0,88,0.00,,,0.00,,2013-01-15 15:03:00,
2013-01-15 09:12:00,25.0,22.0,30.21,NE,52,6.0,17.0,88,0.00,,,0.00,,2013-01-15 15:12:00,
2013-01-15 09:23:00,25.0,22.0,30.21,NNE,32,12.0,17.0,87,0.00,,,0.00,,2013-01-15 15:23:00,
2013-01-15 09:33:00,25.0,22.0,30.21,ENE,66,5.0,17.0,87,0.00,,,0.00,,2013-01-15 15:33:00,
2013-01-15 09:43:00,25.0,22.0,30.21,ENE,66,5.0,17.0,87,0.00,,,0.00,,2013-01-15 15:43:00,
2013-01-15 09:53:00,25.0,22.0,30.21,ENE,66,5.0,17.0,87,0.00,,,0.00,,2013-01-15 15:53:00,
2013-01-15 10:03:00,26.0,22.0,30.20,ENE,78,7.0,13.0,85,0.00,,,0.00,,2013-01-15 16:03:00,
2013-01-15 10:12:00,26.0,22.0,30.20,ENE,78,7.0,13.0,85,0.00,,,0.00,,2013-01-15 16:12:00,
2013-01-15 10:22:00,26.0,22.0,30.19,NE,55,6.0,13.0,83,0.00,,,0.00,,2013-01-15 16:22:00,
2013-01-15 10:33:00,26.0,21.0,30.19,NE,54,4.0,13.0,82,0.00,,,0.00,,2013-01-15 16:33:00,
2013-01-15 10:42:00,26.0,21.0,30.19,NE,54,4.0,13.0,82,0.00,,,0.00,,2013-01-15 16:42:00,
2013-01-15 10:53:00,27.0,22.0,30.19,North,1,5.0,13.0,81,0.00,,,0.00,,2013-01-15 16:53:00,
2013-01-15 11:03:00,28.0,22.0,30.17,NE,49,8.0,12.0,78,0.00,,,0.00,,2013-01-15 17:03:00,
2013-01-15 11:12:00,28.0,22.0,30.17,NE,49,8.0,12.0,78,0.00,,,0.00,,2013-01-15 17:12:00,
2013-01-15 11:22:00,28.0,23.0,30.13,East,90,13.0,13.0,81,0.00,,,0.00,,2013-01-15 17:22:00,
2013-01-15 11:33:00,29.0,23.0,30.12,NNE,32,4.0,19.0,77,0.00,,,0.00,,2013-01-15 17:33:00,
2013-01-15 11:42:00,29.0,23.0,30.12,NNE,32,4.0,19.0,77,0.00,,,0.00,,2013-01-15 17:42:00,
2013-01-15 11:53:00,30.0,23.0,30.12,NE,51,2.0,19.0,75,0.00,,,0.00,,2013-01-15 17:53:00,
2013-01-15 12:03:00,30.0,23.0,30.12,NE,35,6.0,16.0,74,0.00,,,0.00,,2013-01-15 18:03:00,
2013-01-15 12:13:00,30.0,23.0,30.12,NE,35,6.0,16.0,74,0.00,,,0.00,,2013-01-15 18:13:00,
2013-01-15 12:23:00,29.0,22.0,30.08,North,0,2.0,16.0,75,0.00,,,0.00,,2013-01-15 18:23:00,
2013-01-15 12:33:00,29.0,23.0,30.09,NE,41,6.0,13.0,78,0.00,,,0.00,,2013-01-15 18:33:00,
2013-01-15 12:43:00,29.0,23.0,30.09,NE,41,6.0,13.0,78,0.00,,,0.00,,2013-01-15 18:43:00,
2013-01-15 12:53:00,29.0,23.0,30.12,North,356,2.0,13.0,77,0.00,,,0.00,,2013-01-15 18:53:00,
2013-01-15 13:03:00,30.0,23.0,30.13,NE,56,2.0,13.0,76,0.00,,,0.00,,2013-01-15 19:03:00,
2013-01-15 13:12:00,30.0,23.0,30.13,NE,56,2.0,13.0,76,0.00,,,0.00,,2013-01-15 19:12:00,
2013-01-15 13:22:00,30.0,23.0,30.12,North,359,7.0,13.0,76,0.00,,,0.00,,2013-01-15 19:22:00,
2013-01-15 13:33:00,30.0,23.0,30.13,North,11,3.0,17.0,75,0.00,,,0.00,,2013-01-15 19:33:00,
2013-01-15 13:42:00,30.0,23.0,30.13,North,11,3.0,17.0,75,0.00,,,0.00,,2013-01-15 19:42:00,
2013-01-15 13:52:00,30.0,23.0,30.09,NNE,18,2.0,17.0,76,0.00,,,0.00,,2013-01-15 19:52:00,
2013-01-15 14:03:00,29.0,22.0,30.12,NE,35,6.0,12.0,75,0.00,,,0.00,,2013-01-15 20:03:00,
2013-01-15 14:12:00,29.0,22.0,30.12,NE,35,6.0,12.0,75,0.00,,,0.00,,2013-01-15 20:12:00,
2013-01-15 14:23:00,30.0,23.0,30.10,NE,42,2.0,12.0,75,0.00,,,0.00,,2013-01-15 20:23:00,
2013-01-15 14:33:00,30.0,23.0,30.09,NE,37,5.0,14.0,75,0.00,,,0.00,,2013-01-15 20:33:00,
2013-01-15 14:43:00,30.0,23.0,30.09,NE,37,5.0,14.0,75,0.00,,,0.00,,2013-01-15 20:43:00,
2013-01-15 14:52:00,30.0,23.0,30.08,ENE,62,6.0,14.0,76,0.00,,,0.00,,2013-01-15 20:52:00,
2013-01-15 15:03:00,30.0,24.0,30.08,NNE,23,5.0,14.0,77,0.00,,,0.00,,2013-01-15 21:03:00,
2013-01-15 15:12:00,30.0,24.0,30.08,NNE,23,5.0,14.0,77,0.00,,,0.00,,2013-01-15 21:12:00,
2013-01-15 15:23:00,30.0,24.0,30.09,NNE,24,6.0,14.0,78,0.00,,,0.00,,2013-01-15 21:23:00,
2013-01-15 15:33:00,30.0,24.0,30.06,NNW,337,8.0,15.0,77,0.00,,,0.00,,2013-01-15 21:33:00,
2013-01-15 15:43:00,30.0,24.0,30.06,NNW,337,8.0,15.0,77,0.00,,,0.00,,2013-01-15 21:43:00,
2013-01-15 15:52:00,30.0,23.0,30.09,NE,47,2.0,15.0,76,0.00,,,0.00,,2013-01-15 21:52:00,
2013-01-15 16:03:00,30.0,23.0,30.10,ENE,62,8.0,17.0,76,0.00,,,0.00,,2013-01-15 22:03:00,
2013-01-15 16:12:00,30.0,23.0,30.10,ENE,62,8.0,17.0,76,0.00,,,0.00,,2013-01-15 22:12:00,
2013-01-15 16:23:00,30.0,24.0,30.10,North,0,10.0,17.0,79,0.00,,,0.00,,2013-01-15 22:23:00,
2013-01-15 16:33:00,30.0,25.0,30.10,NE,47,7.0,17.0,80,0.00,,,0.00,,2013-01-15 22:33:00,
2013-01-15 16:43:00,30.0,25.0,30.10,NE,47,7.0,17.0,80,0.00,,,0.00,,2013-01-15 22:43:00,
2013-01-15 16:52:00,30.0,25.0,30.08,NE,41,2.0,17.0,81,0.00,,,0.00,,2013-01-15 22:52:00,
2013-01-15 17:02:00,30.0,25.0,30.09,NNW,347,3.0,13.0,83,0.00,,,0.00,,2013-01-15 23:02:00,
2013-01-15 17:13:00,30.0,25.0,30.09,NNW,347,3.0,13.0,83,0.00,,,0.00,,2013-01-15 23:13:00,
2013-01-15 17:22:00,30.0,26.0,30.10,NE,47,5.0,13.0,84,0.00,,,0.00,,2013-01-15 23:22:00,
2013-01-15 17:33:00,30.0,27.0,30.08,ENE,64,6.0,10.0,87,0.00,,,0.00,,2013-01-15 23:33:00,
2013-01-15 17:43:00,30.0,27.0,30.08,ENE,64,6.0,10.0,87,0.00,,,0.00,,2013-01-15 23:43:00,
2013-01-15 17:53:00,30.0,26.0,30.08,ENE,61,6.0,10.0,85,0.00,,,0.00,,2013-01-15 23:53:00,
2013-01-15 18:02:00,30.0,26.0,30.06,ENE,68,11.0,12.0,84,0.00,,,0.00,,2013-01-16 00:02:00,
2013-01-15 18:12:00,30.0,26.0,30.06,ENE,68,11.0,12.0,84,0.00,,,0.00,,2013-01-16 00:12:00,
2013-01-15 18:22:00,30.0,26.0,30.06,ENE,73,8.0,12.0,86,0.00,,,0.00,,2013-01-16 00:22:00,
2013-01-15 18:33:00,30.0,27.0,30.06,ENE,59,8.0,12.0,88,0.00,,,0.00,,2013-01-16 00:33:00,
2013-01-15 18:43:00,30.0,27.0,30.06,ENE,59,8.0,12.0,88,0.00,,,0.00,,2013-01-16 00:43:00,
2013-01-15 18:52:00,30.0,27.0,30.06,NE,51,5.0,12.0,88,0.00,,,0.00,,2013-01-16 00:52:00,
2013-01-15 19:03:00,30.0,27.0,30.05,ENE,72,8.0,12.0,88,0.00,,,0.00,,2013-01-16 01:03:00,
2013-01-15 19:12:00,30.0,27.0,30.05,ENE,72,8.0,12.0,88,0.00,,,0.00,,2013-01-16 01:12:00,
2013-01-15 19:22:00,30.0,27.0,30.06,ENE,68,6.0,12.0,89,0.00,,,0.00,,2013-01-16 01:22:00,
2013-01-15 19:33:00,30.0,27.0,30.03,ENE,68,7.0,11.0,90,0.00,,,0.00,,2013-01-16 01:33:00,
2013-01-15 19:42:00,30.0,27.0,30.03,ENE,68,7.0,11.0,90,0.00,,,0.00,,2013-01-16 01:42:00,
2013-01-15 19:52:00,30.0,27.0,30.04,NE,38,2.0,11.0,90,0.00,,,0.00,,2013-01-16 01:52:00,
2013-01-15 20:03:00,30.0,28.0,30.05,NE,42,4.0,10.0,91,0.00,,,0.00,,2013-01-16 02:03:00,
2013-01-15 20:12:00,30.0,28.0,30.05,NE,42,4.0,10.0,91,0.00,,,0.00,,2013-01-16 02:12:00,
2013-01-15 20:22:00,30.0,28.0,30.03,NNE,30,2.0,10.0,91,0.00,,,0.00,,2013-01-16 02:22:00,
2013-01-15 20:32:00,30.0,28.0,30.05,NNE,21,0.0,11.0,92,0.00,,,0.00,,2013-01-16 02:32:00,
2013-01-15 20:42:00,30.0,28.0,30.05,NNE,21,0.0,11.0,92,0.00,,,0.00,,2013-01-16 02:42:00,
2013-01-15 20:52:00,30.0,28.0,30.05,NNE,25,4.0,11.0,92,0.00,,,0.00,,2013-01-16 02:52:00,
2013-01-15 21:03:00,30.0,28.0,30.04,North,0,1.0,9.0,92,0.00,,,0.00,,2013-01-16 03:03:00,
2013-01-15 21:12:00,30.0,28.0,30.05,NNW,333,4.0,9.0,93,0.00,,,0.00,,2013-01-16 03:12:00,
2013-01-15 21:22:00,30.0,28.0,30.05,NNW,333,4.0,9.0,93,0.00,,,0.00,,2013-01-16 03:22:00,
2013-01-15 21:32:00,30.0,28.0,30.04,North,0,1.0,10.0,94,0.00,,,0.00,,2013-01-16 03:32:00,
2013-01-15 21:42:00,30.0,28.0,30.04,North,0,1.0,10.0,94,0.00,,,0.00,,2013-01-16 03:42:00,
2013-01-15 21:52:00,30.0,28.0,30.05,North,3,5.0,10.0,94,0.00,,,0.00,,2013-01-16 03:52:00,
2013-01-15 22:02:00,30.0,28.0,30.03,North,0,5.0,11.0,94,0.00,,,0.00,,2013-01-16 04:02:00,
2013-01-15 22:12:00,30.0,28.0,30.03,North,0,5.0,11.0,94,0.00,,,0.00,,2013-01-16 04:12:00,
2013-01-15 22:22:00,30.0,29.0,30.05,NNE,23,0.0,11.0,95,0.00,,,0.00,,2013-01-16 04:22:00,
2013-01-15 22:32:00,30.0,28.0,30.04,NNE,27,5.0,8.0,94,0.00,,,0.00,,2013-01-16 04:32:00,
2013-01-15 22:42:00,30.0,28.0,30.04,NNE,27,5.0,8.0,94,0.00,,,0.00,,2013-01-16 04:42:00,
2013-01-15 22:52:00,30.0,29.0,30.03,North,10,4.0,8.0,95,0.00,,,0.00,,2013-01-16 04:52:00,
2013-01-15 23:03:00,30.0,29.0,30.03,North,352,2.0,9.0,96,0.00,,,0.00,,2013-01-16 05:03:00,
2013-01-15 23:12:00,30.0,29.0,30.03,North,352,2.0,9.0,96,0.00,,,0.00,,2013-01-16 05:12:00,
2013-01-15 23:22:00,30.0,29.0,30.02,NNE,18,1.0,9.0,97,0.00,,,0.00,,2013-01-16 05:22:00,
2013-01-15 23:32:00,30.0,29.0,30.02,NE,41,6.0,11.0,97,0.00,,,0.00,,2013-01-16 05:32:00,
2013-01-15 23:42:00,30.0,29.0,30.02,NE,41,6.0,11.0,97,0.00,,,0.00,,2013-01-16 05:42:00,
2013-01-15 23:53:00,30.0,29.0,29.98,North,3,2.0,11.0,95,0.00,,,0.00,,2013-01-16 05:53:00,